Tracking 29892 objects as of 21-Nov-2024
HD Live streaming from Space Station
objects crossing your sky now

NOAA 16 DEB

Track NOAA 16 DEB now!
10-day predictions


NORAD ID: 41197
Int'l Code: 2000-055DA
Perigee: 791.7 km
Apogee: 848.0 km
Inclination: 98.7 °
Period: 101.1 minutes
Semi major axis: 7190 km
RCS: Unknown
Launch date: September 21, 2000
Source: United States (US)
Launch site: AIR FORCE WESTERN TEST RANGE (AFWTR)

Note: This is SATELLITE DEBRIS
Your satellite tracking list
Your tracking list is empty




NASA's NSSDC Master Catalog

Two Line Element Set (TLE):
1 41197U 00055DA  24324.30665035  .00010819  00000-0  47101-2 0  9999
2 41197  98.6779 333.9170 0039133  20.2559 340.0162 14.23751536457197
Source of the keplerian elements: AFSPC